Location: Newark
(45.0242°N, 16.0939°E)
Time: 05:27:35
(UTC+00:00)

Envisat - Pass Details

Date: 19 September 2019
Orbit: 764 x 766 km, 98.1° (Epoch: 18 October)

Event Time Altitude Azimuth Distance (km) Brightness Sun altitude
Rises 18:20:11 0° 209° (SSW) 3,221 6.4 -14.8°
Reaches altitude 10° 18:23:15 10° 229° (SW) 2,300 5.9 -15.3°
Maximum altitude 18:26:34 17° 270° (W) 1,848 6.0 -15.9°
Drops below altitude 10° 18:29:53 10° 311° (NW) 2,311 6.6 -16.4°
Sets 18:33:00 0° 331° (NNW) 3,243 7.0 -17.0°
